TimeCDT,TemperatureF,Dew PointF,Humidity,Sea Level PressureIn,VisibilityMPH,Wind Direction,Wind SpeedMPH,Gust SpeedMPH,PrecipitationIn,Events,Conditions,WindDirDegrees,DateUTC
12:53 AM,75.9,71.1,85,29.77,5.0,SSE,11.5,18.4,N/A,,Haze,160,2013-05-17 05:53:00
1:53 AM,75.0,71.1,87,29.77,4.0,South,9.2,17.3,N/A,,Overcast,170,2013-05-17 06:53:00
2:53 AM,75.0,71.1,87,29.77,5.0,South,8.1,20.7,N/A,,Overcast,170,2013-05-17 07:53:00
3:53 AM,75.0,71.1,87,29.77,5.0,South,8.1,16.1,N/A,,Overcast,180,2013-05-17 08:53:00
4:53 AM,73.9,70.0,87,29.78,5.0,South,9.2,-,N/A,,Overcast,170,2013-05-17 09:53:00
5:53 AM,73.9,69.1,85,29.78,5.0,South,9.2,-,N/A,,Haze,180,2013-05-17 10:53:00
7:53 AM,73.0,69.1,87,29.82,4.0,South,8.1,16.1,N/A,,Overcast,170,2013-05-17 12:53:00
8:53 AM,73.9,68.0,82,29.84,5.0,South,9.2,18.4,N/A,,Haze,170,2013-05-17 13:53:00
9:33 AM,75.0,66.9,76,29.90,5.0,South,9.2,-,N/A,,Haze,170,2013-05-17 14:33:00
9:53 AM,77.0,68.0,74,29.84,5.0,South,8.1,17.3,N/A,,Haze,170,2013-05-17 14:53:00
10:53 AM,80.1,68.0,67,29.85,6.0,South,10.4,-,N/A,,Haze,170,2013-05-17 15:53:00
11:53 AM,82.9,69.1,63,29.85,6.0,SSE,8.1,-,N/A,,Haze,160,2013-05-17 16:53:00
12:53 PM,87.1,69.1,55,29.84,7.0,South,9.2,16.1,N/A,,Clear,170,2013-05-17 17:53:00
1:53 PM,88.0,69.1,53,29.82,8.0,SSE,9.2,23.0,N/A,,Clear,160,2013-05-17 18:53:00
2:53 PM,90.0,70.0,52,29.81,8.0,SE,6.9,20.7,N/A,,Clear,140,2013-05-17 19:53:00
3:53 PM,91.0,69.1,48,29.79,8.0,SSE,11.5,-,N/A,,Clear,160,2013-05-17 20:53:00
4:53 PM,91.9,70.0,48,29.78,7.0,SSE,12.7,21.9,N/A,,Clear,160,2013-05-17 21:53:00
5:53 PM,91.9,69.1,47,29.77,7.0,South,13.8,19.6,N/A,,Clear,170,2013-05-17 22:53:00
6:53 PM,90.0,66.9,46,29.78,9.0,South,8.1,23.0,N/A,,Clear,170,2013-05-17 23:53:00
7:53 PM,88.0,68.0,51,29.78,9.0,SSE,5.8,-,N/A,,Clear,160,2013-05-18 00:53:00
8:53 PM,84.9,68.0,57,29.82,10.0,Calm,Calm,-,N/A,,Clear,0,2013-05-18 01:53:00
9:53 PM,82.0,70.0,67,29.85,6.0,SE,10.4,-,N/A,,Haze,140,2013-05-18 02:53:00
10:53 PM,80.1,70.0,71,29.86,-9999.0,SSE,8.1,-,N/A,,Unknown,160,2013-05-18 03:53:00
11:53 PM,77.0,70.0,79,29.86,5.0,SSE,9.2,17.3,N/A,,Haze,160,2013-05-18 04:53:00